Kankakee, IL

10:05 PM CDT on April 19, 2018 (GMT -0500)
Greater Kankakee

Weather History for KIKK - February, 2013

Change the Weather History Date:

Saturday, February 23, 2013

  Actual Average Record
Temperature  
Mean Temperature 23 °F -  
Max Temperature 27 °F 43 °F 62 °F (1983)
Min Temperature 18 °F 23 °F -2 °F (1978)
Degree Days  
Heating Degree Days 42    
Moisture  
Dew Point 19 °F    
Average Humidity 80    
Maximum Humidity 91    
Minimum Humidity 66    
Precipitation  
Precipitation 0.00 in - - ()
Sea Level Pressure  
Sea Level Pressure 29.97 in    
Wind  
Wind Speed 10 mph (WSW)    
Max Wind Speed 14 mph    
Max Gust Speed 18 mph    
Visibility 10 miles    
Events      
Averages and records for this station are not official NWS values.
T = Trace of Precipitation, MM = Missing Value Source: NWS Daily Summary

Daily Weather History Graph

Daily Weather History Graph

Search for Another Location

Airport or City:

Astronomy

Feb. 23, 2013 Rise Set
Actual Time 6:34 AM CST 5:35 PM CST
Civil Twilight 6:06 AM CST 6:03 PM CST
Nautical Twilight 5:34 AM CST 6:35 PM CST
Astronomical Twilight 5:02 AM CST 7:07 PM CST
Moon 3:45 PM CST (2/23) 4:57 AM CST (2/23)
Length of Visible Light 11h 57m
Length of Day
11h 01m
Waxing Gibbous, 95% of the Moon is Illuminated
Feb 23
Waxing Gibbous
Feb 25
Full
Mar 4
Last Quarter
Mar 11
New
Mar 19
First Quarter

Hourly Weather History & Observations

Time (CST) Temp. Windchill Dew Point Humidity Pressure Visibility Wind Dir Wind Speed Gust Speed Precip Events Conditions
12:15 AM 26.1 °F 16.2 °F 22.1 °F 85% 29.95 in 10.0 mi SW 10.4 mph - N/A   Overcast
12:35 AM 25.7 °F 14.0 °F 22.1 °F 86% 29.95 in 10.0 mi SW 13.8 mph - N/A   Overcast
12:55 AM 25.0 °F 14.2 °F 21.6 °F 87% 29.95 in 10.0 mi SW 11.5 mph - N/A   Mostly Cloudy
1:15 AM 24.8 °F 14.0 °F 21.4 °F 87% 29.95 in 10.0 mi SW 11.5 mph - N/A   Mostly Cloudy
1:35 AM 25.7 °F 14.6 °F 22.1 °F 86% 29.95 in 10.0 mi WSW 12.7 mph 18.4 mph N/A   Overcast
1:55 AM 25.7 °F 15.1 °F 21.9 °F 86% 29.95 in 10.0 mi WSW 11.5 mph - N/A   Overcast
2:15 AM 25.5 °F 14.3 °F 21.9 °F 86% 29.95 in 10.0 mi WSW 12.7 mph - N/A   Overcast
2:35 AM 25.2 °F 13.9 °F 21.6 °F 86% 29.95 in 10.0 mi WSW 12.7 mph - N/A   Overcast
2:55 AM 24.8 °F 14.6 °F 21.2 °F 86% 29.95 in 10.0 mi WSW 10.4 mph - N/A   Overcast
3:15 AM 24.1 °F 13.1 °F 20.3 °F 85% 29.95 in 10.0 mi WSW 11.5 mph - N/A   Mostly Cloudy
3:35 AM 23.0 °F 13.9 °F 19.8 °F 87% 29.95 in 10.0 mi WSW 8.1 mph - N/A   Scattered Clouds
3:55 AM 22.1 °F 13.7 °F 19.8 °F 91% 29.95 in 10.0 mi WSW 6.9 mph - N/A   Overcast
4:15 AM 22.6 °F 14.3 °F 19.9 °F 89% 29.95 in 10.0 mi WSW 6.9 mph - N/A   Overcast
4:35 AM 22.8 °F 14.5 °F 20.1 °F 89% 29.96 in 10.0 mi WSW 6.9 mph - N/A   Overcast
4:55 AM 23.0 °F 14.7 °F 19.8 °F 87% 29.96 in 10.0 mi WSW 6.9 mph - N/A   Overcast
5:15 AM 24.1 °F 15.2 °F 19.4 °F 82% 29.96 in 10.0 mi WSW 8.1 mph - N/A   Overcast
5:35 AM 24.6 °F 13.8 °F 19.2 °F 80% 29.96 in 10.0 mi WSW 11.5 mph - N/A   Overcast
5:55 AM 24.6 °F 13.2 °F 16.9 °F 72% 29.97 in 10.0 mi WSW 12.7 mph 18.4 mph N/A   Overcast
6:15 AM 24.4 °F 14.2 °F 17.4 °F 75% 29.98 in 10.0 mi WSW 10.4 mph - N/A   Overcast
6:35 AM 24.4 °F 13.5 °F 17.8 °F 76% 29.98 in 10.0 mi WSW 11.5 mph - N/A   Overcast
6:55 AM 24.4 °F 14.9 °F 18.1 °F 77% 29.97 in 10.0 mi WSW 9.2 mph - N/A   Overcast
7:15 AM 24.3 °F 14.6 °F 18.5 °F 79% 29.97 in 10.0 mi SW 9.2 mph - N/A   Overcast
7:35 AM 24.6 °F 15.8 °F 18.5 °F 78% 29.97 in 10.0 mi WSW 8.1 mph - N/A   Overcast
7:55 AM 24.8 °F 16.1 °F 18.7 °F 78% 29.97 in 10.0 mi SW 8.1 mph - N/A   Overcast
8:15 AM 25.5 °F 15.5 °F 18.9 °F 76% 29.97 in 10.0 mi SW 10.4 mph - N/A   Overcast
8:35 AM 25.7 °F 15.7 °F 18.9 °F 75% 29.97 in 10.0 mi WSW 10.4 mph - N/A   Overcast
8:55 AM 26.1 °F 14.5 °F 18.0 °F 71% 29.97 in 10.0 mi WSW 13.8 mph - N/A   Overcast
9:15 AM 26.2 °F 15.2 °F 17.1 °F 68% 29.97 in 10.0 mi WSW 12.7 mph - N/A   Overcast
9:35 AM 27.3 °F 17.1 °F 17.2 °F 66% 29.97 in 10.0 mi WSW 11.5 mph - N/A   Overcast
9:55 AM 26.6 °F 15.7 °F 16.5 °F 66% 29.97 in 10.0 mi West 12.7 mph - N/A   Overcast
10:15 AM 26.4 °F 15.0 °F 17.6 °F 69% 29.99 in 10.0 mi West 13.8 mph 18.4 mph N/A   Overcast
10:35 AM 26.1 °F 15.0 °F 17.1 °F 69% 29.98 in 10.0 mi West 12.7 mph - N/A   Overcast
10:55 AM 26.4 °F 15.5 °F 17.8 °F 70% 29.98 in 10.0 mi West 12.7 mph - N/A   Overcast
11:15 AM 26.4 °F 16.0 °F 17.6 °F 69% 29.97 in 10.0 mi WSW 11.5 mph - N/A   Overcast
11:35 AM 26.8 °F 17.7 °F 18.5 °F 71% 29.97 in 10.0 mi West 9.2 mph - N/A   Overcast
11:55 AM 26.6 °F 16.2 °F 19.4 °F 74% 29.96 in 10.0 mi West 11.5 mph - N/A   Overcast
12:15 PM 26.6 °F 17.5 °F 18.5 °F 71% 29.96 in 10.0 mi WSW 9.2 mph - N/A   Overcast
12:35 PM 26.4 °F 16.6 °F 18.5 °F 72% 29.95 in 10.0 mi WSW 10.4 mph - N/A   Overcast
12:55 PM 26.6 °F 15.7 °F 19.6 °F 75% 29.95 in 10.0 mi West 12.7 mph - N/A   Overcast
1:15 PM 26.6 °F 16.8 °F 18.9 °F 73% 29.95 in 10.0 mi West 10.4 mph - N/A   Overcast
1:35 PM 26.8 °F 17.7 °F 19.6 °F 74% 29.95 in 10.0 mi West 9.2 mph - N/A   Overcast
1:55 PM 26.6 °F 17.5 °F 19.8 °F 75% 29.95 in 10.0 mi WSW 9.2 mph - N/A   Overcast
2:15 PM 26.6 °F 16.2 °F 19.6 °F 75% 29.96 in 10.0 mi WSW 11.5 mph - N/A   Overcast
2:35 PM 26.6 °F 15.7 °F 19.6 °F 75% 29.96 in 10.0 mi WSW 12.7 mph - N/A   Overcast
2:55 PM 26.6 °F 17.5 °F 19.9 °F 76% 29.95 in 10.0 mi WSW 9.2 mph - N/A   Overcast
3:15 PM 26.6 °F 16.8 °F 19.6 °F 75% 29.95 in 10.0 mi WSW 10.4 mph - N/A   Overcast
3:35 PM 26.6 °F 16.8 °F 20.1 °F 77% 29.95 in 10.0 mi West 10.4 mph - N/A   Overcast
3:55 PM 26.6 °F 16.8 °F 19.9 °F 76% 29.95 in 10.0 mi WSW 10.4 mph - N/A   Overcast
4:15 PM 26.6 °F 16.8 °F 19.9 °F 76% 29.95 in 10.0 mi WSW 10.4 mph - N/A   Overcast
4:35 PM 26.6 °F 17.5 °F 19.8 °F 75% 29.95 in 10.0 mi WSW 9.2 mph - N/A   Overcast
4:55 PM 26.6 °F 19.1 °F 20.1 °F 77% 29.95 in 10.0 mi West 6.9 mph - N/A   Overcast
5:15 PM 26.6 °F 20.0 °F 20.3 °F 77% 29.96 in 10.0 mi WSW 5.8 mph - N/A   Overcast
5:35 PM 26.8 °F 19.3 °F 20.7 °F 78% 29.96 in 10.0 mi WSW 6.9 mph - N/A   Overcast
5:55 PM 27.0 °F 21.6 °F 21.2 °F 79% 29.97 in 10.0 mi WSW 4.6 mph - N/A   Overcast
6:15 PM 27.0 °F 20.5 °F 21.4 °F 79% 29.97 in 10.0 mi WSW 5.8 mph - N/A   Overcast
6:35 PM 27.0 °F 20.5 °F 21.7 °F 81% 29.98 in 10.0 mi WSW 5.8 mph - N/A   Overcast
6:55 PM 27.0 °F 20.5 °F 21.9 °F 81% 29.97 in 10.0 mi WSW 5.8 mph - N/A   Overcast
7:15 PM 27.0 °F 20.5 °F 21.7 °F 81% 29.97 in 10.0 mi WSW 5.8 mph - N/A   Overcast
7:35 PM 26.4 °F 19.8 °F 21.4 °F 81% 29.97 in 10.0 mi WSW 5.8 mph - N/A   Overcast
7:55 PM 25.7 °F 19.0 °F 21.4 °F 84% 29.98 in 10.0 mi WSW 5.8 mph - N/A   Overcast
8:15 PM 25.0 °F 17.1 °F 21.0 °F 85% 29.98 in 10.0 mi WSW 6.9 mph - N/A   Overcast
8:35 PM 24.3 °F 18.4 °F 20.8 °F 87% 29.98 in 10.0 mi SW 4.6 mph - N/A   Overcast
8:55 PM 23.0 °F 14.7 °F 19.9 °F 88% 29.98 in 10.0 mi WSW 6.9 mph - N/A   Scattered Clouds
9:15 PM 22.1 °F 13.7 °F 19.4 °F 89% 29.98 in 10.0 mi WSW 6.9 mph - N/A   Clear
9:35 PM 21.6 °F 12.1 °F 18.7 °F 89% 29.99 in 10.0 mi WSW 8.1 mph - N/A   Clear
9:55 PM 21.0 °F 12.4 °F 18.3 °F 89% 29.99 in 10.0 mi WSW 6.9 mph - N/A   Clear
10:15 PM 20.3 °F 11.5 °F 18.0 °F 91% 29.99 in 10.0 mi WSW 6.9 mph - N/A   Clear
10:35 PM 19.9 °F 11.1 °F 17.6 °F 91% 29.99 in 10.0 mi WSW 6.9 mph - N/A   Clear
10:55 PM 19.4 °F 11.5 °F 17.2 °F 91% 29.99 in 10.0 mi SW 5.8 mph - N/A   Clear
11:15 PM 19.0 °F 11.1 °F 16.7 °F 91% 29.99 in 10.0 mi SW 5.8 mph - N/A   Clear
11:35 PM 19.0 °F 12.3 °F 16.5 °F 90% 29.99 in 10.0 mi SW 4.6 mph - N/A   Clear
11:55 PM 18.0 °F 9.8 °F 15.8 °F 91% 29.99 in 10.0 mi WSW 5.8 mph - N/A   Clear